Wind_Speed
76 76 76 76 76 76 77 77 77 76 76 76 76 78 78 79 80 80 81 81 81 82 82 82 82 81 80 79 78 78 78 78 78 77 77 77 77 78 79 80 82 83
80 80 80 80 80 80 79 78 78 78 78 78 78 79 80 81 82 83 85 85 86 86 86 85 85 84 83 83 82 81 82 83 83 83 83 82 82 83 83 84 85 86
86 85 84 85 84 83 82 81 80 80 80 80 80 80 81 81 83 84 85 86 87 87 87 87 87 86 86 86 85 85 86 87 88 88 88 88 88 88 89 89 90 91
95 93 90 89 88 87 85 84 83 83 83 82 82 81 82 83 85 85 86 87 87 87 88 88 88 88 88 88 88 89 89 90 91 92 93 92 92 92 93 93 95 96
102 101 99 95 93 92 91 89 88 87 87 87 86 86 86 86 88 89 90 89 89 88 88 89 89 90 91 92 92 93 93 94 95 96 96 96 97 97 97 98 99 100
105 105 104 102 98 96 95 95 95 94 93 93 94 93 93 92 91 92 93 93 92 92 92 94 95 96 97 97 97 98 98 99 100 101 101 101 101 101 102 102 103 104
107 107 107 106 104 102 100 100 101 101 100 100 100 100 99 97 95 95 96 97 97 97 98 99 101 101 102 102 102 102 103 104 105 106 106 106 106 106 107 107 108 108
108 109 109 109 108 108 107 107 106 106 107 107 107 106 104 102 100 99 99 101 102 102 102 103 104 105 106 106 106 106 107 108 110 110 111 111 112 112 112 113 113 113
111 111 112 112 112 113 113 113 112 111 111 111 111 111 109 107 105 105 105 105 105 105 106 107 108 109 110 111 111 112 113 114 114 115 115 116 116 116 117 117 117 118
115 115 116 116 116 116 116 116 115 115 114 114 114 114 113 112 111 111 111 111 110 110 110 111 113 114 115 115 116 117 117 118 118 119 119 120 120 120 120 120 120 120
118 118 119 120 120 120 120 119 118 117 117 117 117 116 116 116 115 115 115 115 115 115 115 115 116 117 118 119 119 120 120 120 121 121 122 122 123 122 122 122 122 122
119 120 121 121 122 121 121 121 120 119 119 119 119 120 119 119 118 118 118 118 119 119 119 118 119 119 120 121 121 122 122 123 123 123 123 124 124 124 123 123 122 122
117 119 121 122 122 122 121 121 120 120 120 120 121 122 122 122 121 121 121 121 122 122 122 121 120 120 121 122 123 123 124 125 125 125 124 125 125 125 124 123 122 122
114 117 118 119 119 119 119 119 118 118 118 119 119 121 122 122 123 123 123 123 123 123 123 122 122 122 122 123 124 124 125 125 125 125 125 125 125 125 125 124 123 122
111 113 114 114 113 113 113 114 115 116 117 117 118 119 120 120 121 121 121 122 122 122 122 123 123 123 124 124 125 125 125 124 124 124 125 125 126 126 126 125 124 123
108 110 111 110 109 108 107 108 109 111 114 115 116 117 118 119 119 120 120 120 121 122 122 122 123 123 124 124 125 125 125 125 124 124 124 125 126 126 126 126 126 125
104 106 107 107 106 105 105 105 105 106 108 110 112 114 115 117 118 119 119 120 121 122 123 123 123 124 124 125 126 126 126 126 125 125 126 126 127 127 128 128 128 126
100 102 103 104 104 104 104 104 104 104 104 105 107 109 111 113 115 116 117 118 120 121 123 124 124 125 125 126 127 128 128 128 127 127 127 127 127 127 127 127 125 123
99 100 101 101 102 102 102 103 103 103 103 103 104 105 106 107 109 110 112 114 116 118 120 122 123 124 125 126 127 128 128 127 126 125 124 122 121 120 119 119 118 118
101 101 101 101 101 101 102 102 102 103 102 102 103 103 104 104 104 105 106 108 110 112 113 115 116 117 117 118 119 119 119 119 118 117 116 114 113 113 112 113 114 115
104 103 103 103 103 102 102 102 102 103 103 102 102 102 103 104 104 104 105 105 107 108 109 110 110 109 109 110 110 110 109 109 109 109 109 108 108 108 110 113 115 115
106 106 106 106 105 104 104 104 104 105 105 104 103 103 103 104 104 105 106 107 108 109 110 110 110 109 108 108 108 108 107 106 106 107 106 106 107 109 113 116 117 116
108 109 110 110 108 107 106 106 106 107 107 107 106 106 106 106 106 108 109 110 111 111 112 113 112 111 110 110 109 109 108 107 108 108 109 110 112 116 119 120 120 118
108 109 111 112 111 109 108 107 107 108 108 109 109 109 109 109 109 110 111 112 113 113 114 114 113 111 111 111 111 111 110 109 110 112 114 117 120 122 123 123 122 120
107 109 111 112 112 111 109 107 107 108 109 109 110 110 111 111 112 113 114 114 115 115 114 114 114 113 113 113 113 114 113 113 115 117 120 123 125 126 126 125 123 121
106 107 109 111 112 111 110 108 107 108 108 109 110 111 111 112 114 115 116 116 116 116 115 115 116 116 117 117 117 118 117 118 120 123 125 128 129 129 128 125 123 122
Wind_Direction
272 271 269 268 267 267 268 269 270 270 271 271 272 272 272 272 272 272 272 272 273 273 273 273 272 271 271 271 270 270 270 269 268 268 269 270 271 273 274 276 277 278
272 272 271 270 268 267 267 268 269 270 271 272 272 272 273 273 273 272 273 273 273 273 273 273 273 273 273 272 271 270 269 269 268 268 268 268 269 270 272 273 274 275
270 270 270 270 270 270 269 268 268 268 268 269 270 270 271 271 272 272 271 271 272 272 273 273 274 274 274 273 272 271 269 269 268 268 268 269 269 270 271 272 272 273
270 269 268 268 269 270 270 269 269 268 268 267 267 268 269 271 271 271 271 271 271 271 272 272 273 273 273 273 272 271 271 270 269 269 270 270 270 271 271 272 272 272
269 269 269 267 267 268 269 269 268 268 268 267 267 267 268 269 270 270 270 270 269 269 269 270 270 271 271 271 271 271 271 271 270 270 270 270 271 271 271 271 272 272
268 268 268 268 267 267 267 267 266 266 266 266 266 267 268 268 267 268 268 268 267 267 267 268 269 269 269 270 270 270 270 270 270 270 270 271 271 271 271 271 272 273
265 266 267 267 267 267 267 266 265 264 264 264 265 266 266 266 266 266 266 266 266 266 267 267 268 269 269 269 269 270 270 271 271 271 271 271 271 271 271 271 272 273
263 264 265 265 266 266 266 266 265 264 263 263 264 265 265 265 265 264 264 264 264 265 266 266 267 268 268 269 269 270 270 271 271 272 272 271 271 271 271 272 272 273
261 261 261 262 263 264 265 265 265 264 263 263 263 264 264 264 264 264 263 263 263 264 264 264 265 266 267 267 268 269 270 271 271 272 272 272 272 272 272 272 273 273
258 258 259 260 260 261 262 263 264 264 264 263 262 262 263 264 264 264 264 264 264 264 264 263 264 264 265 266 267 268 269 270 270 271 272 272 273 273 273 273 273 274
257 257 257 258 258 259 260 261 262 262 262 262 262 261 261 262 263 263 264 264 264 264 264 264 263 264 265 266 267 268 269 269 270 271 271 272 272 273 273 274 274 274
256 256 256 256 257 258 258 259 261 261 261 261 260 261 261 261 262 262 263 263 264 264 264 264 264 264 265 266 267 268 269 269 270 271 271 272 273 273 274 274 275 275
255 255 255 256 257 257 258 259 260 260 260 260 259 259 260 260 261 261 262 262 263 263 264 264 264 264 264 265 267 268 268 269 270 271 271 272 273 274 274 275 275 276
254 254 254 255 256 257 257 258 259 259 259 259 259 259 259 260 260 261 261 261 262 263 264 264 264 264 264 265 265 267 268 269 270 270 271 272 273 273 274 275 275 276
254 253 253 254 255 256 256 256 257 257 257 257 257 258 258 258 259 260 260 261 261 262 263 263 264 264 264 265 265 266 267 268 269 270 271 272 272 273 274 275 276 276
256 255 254 253 253 254 255 255 255 255 256 256 256 257 257 257 258 258 259 259 260 261 261 262 263 264 264 265 266 267 267 268 269 270 271 272 273 274 274 275 276 276
257 257 256 255 254 253 254 255 256 256 255 255 256 256 257 257 257 258 258 258 259 260 261 261 262 263 264 265 265 266 267 268 269 270 271 272 273 273 274 275 275 276
257 257 257 257 257 256 255 255 256 256 256 256 256 256 256 257 257 258 259 259 259 260 260 261 262 262 263 264 265 266 267 268 269 270 271 272 273 273 274 274 274 274
260 259 258 259 259 258 258 258 258 257 257 256 256 256 256 257 257 258 259 259 260 260 261 261 262 262 263 264 265 266 267 268 269 270 271 272 273 273 273 273 273 273
262 260 260 259 259 259 259 259 259 259 258 257 257 257 257 257 257 257 258 259 259 259 260 261 262 263 264 265 266 267 268 269 270 271 271 272 273 273 273 274 274 274
261 261 260 260 259 259 259 259 259 259 260 259 259 259 259 259 259 258 258 258 259 259 260 262 262 263 264 265 266 267 268 269 270 271 272 273 274 275 275 275 275 276
261 261 260 260 259 259 259 259 259 259 260 260 260 261 261 262 262 261 261 261 261 261 263 264 265 266 266 267 267 268 269 270 272 273 274 275 276 277 277 277 278 279
260 261 261 260 260 259 259 259 259 259 260 260 260 261 261 262 262 263 264 264 265 265 266 267 267 268 269 269 269 270 271 272 274 275 276 277 278 278 278 279 280 281
259 259 260 260 260 260 259 259 259 259 259 259 260 260 260 261 261 262 263 264 265 266 267 267 268 269 270 271 271 272 273 274 276 277 277 278 278 278 279 279 280 281
257 257 258 259 260 260 259 259 259 259 259 259 259 259 259 259 260 260 261 262 263 265 266 267 269 270 271 272 272 273 274 275 276 276 277 277 277 278 278 279 280 280
255 256 256 257 258 259 259 258 258 258 258 258 259 259 259 259 259 260 260 261 262 264 265 266 267 268 269 270 271 272 273 274 274 274 275 275 276 277 277 278 279 280
Height
10602 10603 10601 10600 10599 10598 10598 10598 10598 10599 10599 10600 10600 10599 10599 10598 10598 10597 10596 10595 10594 10593 10592 10592 10592 10593 10594 10595 10595 10596 10597 10597 10597 10597 10597 10597 10596 10594 10592 10591 10589 10587
10592 10592 10591 10590 10589 10588 10589 10589 10589 10590 10589 10588 10588 10588 10588 10588 10587 10587 10586 10585 10584 10583 10582 10581 10581 10582 10583 10583 10584 10585 10585 10585 10585 10585 10586 10586 10585 10584 10583 10582 10580 10578
10579 10580 10580 10579 10579 10579 10580 10580 10580 10580 10578 10577 10578 10577 10577 10577 10577 10577 10576 10575 10574 10573 10572 10571 10570 10571 10571 10572 10572 10572 10572 10572 10572 10572 10573 10574 10573 10573 10572 10571 10570 10568
10564 10565 10567 10567 10568 10569 10570 10571 10570 10568 10567 10567 10566 10565 10566 10566 10566 10566 10565 10564 10564 10562 10561 10560 10560 10560 10559 10560 10560 10560 10559 10559 10559 10559 10560 10561 10561 10560 10560 10558 10557 10556
10549 10550 10552 10554 10556 10558 10560 10560 10558 10556 10555 10554 10553 10552 10553 10553 10554 10554 10553 10553 10553 10552 10551 10549 10549 10548 10547 10547 10547 10547 10547 10546 10545 10546 10547 10547 10547 10548 10547 10546 10544 10543
10534 10535 10536 10539 10542 10545 10547 10546 10544 10542 10542 10540 10539 10539 10540 10540 10541 10541 10541 10541 10541 10541 10539 10538 10537 10536 10535 10534 10534 10534 10533 10532 10531 10532 10533 10534 10534 10534 10534 10532 10532 10531
10521 10521 10522 10524 10527 10529 10530 10529 10527 10527 10526 10524 10524 10525 10526 10526 10527 10527 10527 10527 10528 10528 10527 10526 10524 10523 10522 10521 10521 10521 10519 10518 10517 10518 10518 10519 10520 10520 10519 10518 10519 10518
10507 10508 10509 10509 10510 10510 10510 10510 10509 10509 10509 10508 10510 10510 10510 10512 10513 10512 10512 10512 10513 10514 10514 10513 10511 10509 10508 10507 10507 10506 10506 10505 10504 10503 10503 10503 10504 10505 10504 10504 10504 10504
10490 10491 10491 10491 10492 10492 10491 10491 10491 10491 10492 10493 10494 10494 10495 10497 10497 10496 10496 10496 10498 10499 10500 10498 10496 10495 10493 10493 10493 10492 10492 10491 10490 10489 10488 10488 10487 10488 10489 10489 10489 10488
10471 10470 10470 10472 10474 10474 10473 10473 10472 10473 10474 10476 10478 10479 10481 10481 10480 10480 10480 10481 10482 10483 10482 10481 10480 10479 10478 10478 10477 10478 10478 10477 10476 10475 10474 10472 10471 10472 10473 10473 10473 10473
10450 10450 10451 10453 10454 10455 10456 10455 10454 10456 10457 10459 10460 10463 10464 10464 10463 10464 10465 10466 10466 10465 10464 10464 10464 10464 10463 10462 10462 10462 10463 10462 10462 10461 10460 10458 10456 10456 10456 10456 10456 10457
10432 10431 10432 10433 10435 10437 10439 10438 10439 10440 10441 10442 10443 10444 10445 10446 10447 10448 10449 10449 10448 10447 10447 10448 10448 10449 10448 10447 10446 10446 10446 10446 10446 10446 10445 10444 10441 10440 10441 10441 10441 10441
10415 10413 10413 10415 10417 10420 10422 10423 10425 10425 10425 10426 10426 10426 10428 10430 10431 10431 10432 10431 10430 10430 10430 10431 10431 10433 10434 10433 10431 10430 10430 10430 10431 10431 10430 10429 10427 10425 10425 10426 10425 10425
10397 10396 10397 10399 10401 10403 10406 10408 10409 10409 10409 10409 10409 10410 10412 10413 10413 10414 10414 10414 10414 10413 10413 10413 10414 10415 10417 10417 10416 10415 10415 10415 10415 10415 10414 10414 10412 10410 10409 10410 10410 10410
10379 10380 10382 10384 10386 10387 10389 10390 10391 10392 10392 10392 10393 10394 10395 10396 10397 10398 10397 10397 10397 10396 10396 10396 10396 10397 10398 10399 10399 10399 10399 10400 10400 10399 10398 10398 10397 10395 10395 10394 10394 10394
10361 10362 10364 10367 10370 10371 10372 10373 10374 10374 10375 10376 10377 10378 10379 10380 10381 10381 10381 10381 10381 10380 10380 10381 10381 10381 10381 10381 10381 10381 10382 10383 10385 10385 10384 10382 10381 10381 10380 10379 10377 10377
10344 10345 10347 10350 10353 10355 10356 10356 10356 10357 10359 10361 10362 10362 10363 10363 10363 10364 10365 10366 10365 10365 10365 10365 10366 10366 10366 10365 10364 10364 10365 10367 10369 10369 10368 10368 10367 10366 10365 10362 10361 10360
10327 10328 10330 10332 10334 10337 10339 10339 10340 10342 10344 10345 10346 10346 10346 10346 10347 10348 10350 10350 10350 10350 10350 10350 10350 10350 10350 10349 10349 10349 10350 10352 10353 10353 10353 10353 10352 10351 10349 10346 10345 10343
10309 10311 10313 10314 10316 10319 10321 10322 10323 10325 10327 10328 10329 10329 10329 10331 10332 10333 10334 10334 10334 10334 10334 10334 10334 10334 10334 10335 10334 10334 10334 10336 10338 10338 10338 10337 10337 10335 10332 10329 10328 10325
10289 10291 10294 10296 10298 10301 10303 10305 10306 10307 10308 10310 10311 10312 10313 10314 10316 10317 10317 10317 10317 10317 10317 10317 10317 10318 10320 10319 10318 10318 10319 10321 10322 10322 10322 10322 10320 10318 10315 10312 10309 10306
10269 10271 10273 10276 10279 10281 10284 10286 10287 10288 10289 10291 10293 10294 10295 10296 10297 10299 10300 10299 10299 10299 10299 10300 10302 10304 10305 10305 10304 10304 10305 10306 10307 10307 10307 10306 10305 10302 10299 10295 10291 10290
10250 10251 10252 10255 10258 10261 10264 10266 10268 10269 10271 10272 10275 10276 10277 10279 10279 10280 10280 10280 10280 10281 10282 10284 10287 10289 10291 10291 10289 10290 10291 10292 10292 10292 10291 10290 10289 10286 10282 10277 10276 10277
10231 10232 10232 10233 10237 10242 10245 10247 10249 10251 10253 10255 10257 10260 10261 10263 10263 10263 10263 10263 10264 10264 10266 10268 10271 10275 10275 10275 10273 10274 10276 10278 10277 10276 10275 10275 10272 10268 10264 10262 10263 10264
10214 10214 10214 10214 10217 10222 10226 10230 10232 10234 10236 10237 10240 10243 10245 10246 10247 10247 10247 10248 10248 10249 10250 10252 10256 10259 10259 10259 10258 10257 10261 10264 10262 10260 10260 10257 10253 10250 10248 10248 10249 10250
10197 10198 10198 10197 10199 10203 10208 10212 10215 10217 10219 10220 10222 10225 10227 10229 10230 10230 10231 10232 10233 10235 10237 10238 10241 10243 10243 10243 10243 10242 10246 10250 10248 10245 10243 10239 10236 10234 10233 10233 10234 10234
10181 10182 10183 10183 10183 10186 10190 10195 10198 10200 10202 10204 10205 10208 10210 10212 10213 10213 10214 10216 10218 10220 10223 10225 10227 10227 10227 10228 10229 10229 10233 10236 10233 10229 10227 10223 10219 10217 10217 10219 10219 10219